Location: Voyageurs National Park
(48.5020°N, 92.9292°W)
Time: 01:38:15
(UTC-05:00)

Amateur Radio Satellites - All Passes

Search period start: 30 September 2016 01:08
Search period end: 01 October 2016 01:08
Location: Voyageurs National Park, 48.5020°N, 92.9292°W

Satellite Date Start Highest point End Downlink Frequencies (MHz)
Time Altitude Azimuth
POPSAT HIP 1 30 Sep 01:09:58 01:14:12 81° 283° (WNW) 01:18:24 437.405
Oscar 19 30 Sep 01:11:18 01:12:17 10° 84° (E) 01:13:15 437.125/150
50 SAT 30 Sep 01:11:27 01:14:06 19° 267° (W) 01:16:48 437.505
BEESAT 3 30 Sep 01:13:32 01:17:21 55° 123° (ESE) 01:21:14 437.485
ISS 30 Sep 01:14:23 01:17:41 89° 61° (ENE) 01:20:58 145.825
UKube-1 30 Sep 01:15:04 01:19:09 40° 262° (W) 01:23:14 .
AUBIESAT-1 30 Sep 01:16:15 01:19:15 21° 259° (W) 01:22:07 437.475
AISAT 30 Sep 01:22:01 01:25:12 19° 268° (W) 01:28:23 437.250
SO-50 30 Sep 01:22:13 01:24:27 14° 251° (WSW) 01:26:39 436.795
NANOSAT C BR1 30 Sep 01:24:45 01:28:54 59° 287° (WNW) 01:33:02 145.865
JAS-2 30 Sep 01:26:56 01:34:54 89° 100° (E) 01:42:28 435.910
Cosmos 2491 30 Sep 01:40:30 01:49:10 54° 72° (ENE) 01:57:44 435.465 / 435.565
DX 1 30 Sep 01:49:59 01:52:40 16° 270° (W) 01:55:22 434.975-435.025
QB50P2 30 Sep 01:50:46 01:54:28 30° 293° (WNW) 01:58:10 145.880/145.840
POLYITAN 1 30 Sep 01:52:56 01:56:39 30° 294° (WNW) 02:00:21 437.675
ITUPSAT 1 30 Sep 01:57:25 02:01:40 34° 65° (ENE) 02:05:58 437.325
TISAT 1 30 Sep 02:08:19 02:12:20 44° 261° (W) 02:16:21 437.305
SWISSCUBE 30 Sep 02:08:51 02:13:23 47° 69° (ENE) 02:17:59 437.505
BEESAT 2 30 Sep 02:13:44 02:17:41 75° 310° (NW) 02:21:42 435.950
BUGSAT 1 30 Sep 02:20:09 02:23:54 38° 291° (WNW) 02:27:39 437.445
BEESAT 30 Sep 02:21:27 02:26:05 55° 70° (ENE) 02:30:46 436.000
Gurwin Techsat 1B 30 Sep 02:24:51 02:29:15 25° 93° (E) 02:33:34 435.225
DUCHIFAT 1 30 Sep 02:28:15 02:30:59 17° 299° (WNW) 02:33:43 145.980
QB50P1 30 Sep 02:33:25 02:35:39 14° 301° (WNW) 02:37:53 145.935-145.965
YUBILEINY 30 Sep 02:43:57 02:52:06 45° 87° (E) 03:00:13 435.215
Oscar 19 30 Sep 02:47:20 02:52:32 73° 103° (ESE) 02:57:39 437.125/150
POPSAT HIP 1 30 Sep 02:48:08 02:49:16 11° 304° (NW) 02:50:24 437.405
ISS 30 Sep 02:51:21 02:53:50 20° 220° (SW) 02:56:20 145.825
BEESAT 3 30 Sep 02:52:05 02:55:17 24° 324° (NW) 02:58:33 437.485
RS-15 30 Sep 02:54:08 03:05:58 48° 28° (NNE) 03:17:46 29.354- 29.394
AO-7 30 Sep 02:59:25 03:01:58 12° 82° (E) 03:04:32 29.400- 29.500
JAS-2 30 Sep 03:12:47 03:18:58 26° 306° (NW) 03:25:02 435.910
AIST 2 30 Sep 03:19:22 03:22:41 24° 115° (ESE) 03:26:02 435.215
MOZHAYETS 4 30 Sep 03:27:08 03:31:27 44° 69° (ENE) 03:35:50
ITUPSAT 1 30 Sep 03:35:10 03:39:29 34° 263° (W) 03:43:51 437.325
KKS-1 30 Sep 03:35:28 03:39:32 36° 67° (ENE) 03:43:36 437.445
Cosmos 2491 30 Sep 03:37:45 03:45:48 41° 275° (W) 03:53:49 435.465 / 435.565
CUSAT 1 30 Sep 03:38:43 03:40:44 11° 40° (NE) 03:42:42 437.405
AO-85 30 Sep 03:41:19 03:44:22 18° 28° (NNE) 03:47:16 145.980
PCSat 30 Sep 03:45:12 03:49:19 23° 108° (ESE) 03:53:28 145.827
ITAMSAT 1 30 Sep 03:45:46 03:50:36 36° 97° (E) 03:55:24 435.822/435.867
SWISSCUBE 30 Sep 03:47:34 03:51:24 24° 267° (W) 03:55:18 437.505
BEESAT 2 30 Sep 03:53:37 03:56:11 16° 331° (NNW) 03:58:46 435.950
BEESAT 30 Sep 04:00:42 04:04:13 20° 268° (W) 04:07:47 436.000
STARS 30 Sep 04:02:36 04:06:33 34° 66° (ENE) 04:10:30 437.465
Cosmos 2504 30 Sep 04:02:47 04:09:46 51° 91° (E) 04:16:38 435.465 / 435.565
Gurwin Techsat 1B 30 Sep 04:04:19 04:09:29 53° 291° (WNW) 04:14:38 435.225
Oscar 19 30 Sep 04:27:42 04:31:18 20° 303° (WNW) 04:34:54 437.125/150
YUBILEINY 30 Sep 04:40:26 04:48:52 49° 289° (WNW) 04:57:18 435.215
AO-7 30 Sep 04:48:28 04:56:39 57° 103° (ESE) 05:04:46 29.400- 29.500
AIST 1 30 Sep 04:49:25 04:52:58 25° 88° (E) 04:56:31
CUBESAT XI-V 30 Sep 04:53:14 04:57:44 46° 70° (ENE) 05:02:16 437.345
AIST 2 30 Sep 04:56:57 05:00:56 47° 315° (NW) 05:04:58 435.215
MOZHAYETS 4 30 Sep 05:05:07 05:08:49 24° 267° (W) 05:12:34
RS-15 30 Sep 05:07:22 05:19:47 81° 236° (SW) 05:31:56 29.354- 29.394
KKS-1 30 Sep 05:12:21 05:16:10 28° 265° (W) 05:20:00 437.445
CUSAT 1 30 Sep 05:18:03 05:25:20 40° 65° (ENE) 05:31:34 437.405
AO-85 30 Sep 05:21:15 05:25:32 80° 49° (NE) 05:29:31 145.980
ITAMSAT 1 30 Sep 05:25:19 05:30:04 36° 295° (WNW) 05:34:48 435.822/435.867
PCSat 30 Sep 05:26:51 05:32:15 68° 308° (NW) 05:37:40 145.827
DANDE 30 Sep 05:29:11 05:36:11 28° 59° (ENE) 05:42:55 436.750
STARS 30 Sep 05:39:08 05:42:56 29° 264° (W) 05:46:46 437.465
Gurwin Techsat 1B 30 Sep 05:47:45 05:48:17 10° 311° (NW) 05:48:50 435.225
BRITE-PL 30 Sep 05:47:51 05:51:13 19° 88° (E) 05:54:24 437.365/2234.400
Cosmos 2504 30 Sep 05:56:51 06:03:24 35° 292° (WNW) 06:09:54 435.465 / 435.565
CUTE-I 30 Sep 06:05:04 06:06:53 12° 85° (E) 06:08:43 437.470
Cubesat XI-IV 30 Sep 06:05:43 06:07:33 12° 85° (E) 06:09:23 437.490
HORYU 2 30 Sep 06:18:42 06:23:06 55° 101° (E) 06:27:29 437.375
AIST 1 30 Sep 06:26:21 06:30:24 36° 287° (WNW) 06:34:28
CUBESAT XI-V 30 Sep 06:31:33 06:35:20 24° 268° (W) 06:39:08 437.345
AIST 2 30 Sep 06:38:20 06:40:25 13° 337° (NNW) 06:42:30 435.215
AO-7 30 Sep 06:41:37 06:49:12 42° 304° (NW) 06:56:47 29.400- 29.500
YUBILEINY 30 Sep 06:44:57 06:48:25 13° 316° (NW) 06:51:53 435.215
STRAND 1 30 Sep 06:56:00 07:00:50 45° 67° (ENE) 07:05:42 437.568
CUSAT 1 30 Sep 07:00:10 07:07:37 52° 269° (W) 07:13:52 437.405
O/OREOS (USA 219) 30 Sep 07:01:09 07:05:16 34° 106° (ESE) 07:09:26 437.305
GOMX 1 30 Sep 07:01:48 07:05:57 39° 97° (E) 07:09:54 467.674
AO-85 30 Sep 07:03:26 07:05:15 13° 251° (WSW) 07:07:01 145.980
NOAA 18 30 Sep 07:05:14 07:10:02 30° 95° (E) 07:14:48 137.9125
GONETS M04 30 Sep 07:10:43 07:15:50 17° 72° (ENE) 07:20:58
DOVE 4 30 Sep 07:10:46 07:13:59 21° 92° (E) 07:17:08 437.250
DANDE 30 Sep 07:11:33 07:20:01 86° 260° (W) 07:27:53 436.750
PCSat 30 Sep 07:12:47 07:16:40 19° 330° (NNW) 07:20:33 145.827
BEESAT 2 30 Sep 07:14:28 07:15:25 11° 19° (NNE) 07:16:20 435.950
NOAA 15 30 Sep 07:17:49 07:23:05 57° 101° (E) 07:28:16 137.62
RS-15 30 Sep 07:21:13 07:30:23 26° 260° (W) 07:39:28 29.354- 29.394
LilacSat-2 30 Sep 07:24:51 07:28:40 61° 101° (E) 07:32:30 437.200
BRITE-PL 30 Sep 07:25:25 07:30:11 56° 290° (WNW) 07:34:33 437.365/2234.400
CANX-2 30 Sep 07:40:53 07:41:18 10° 86° (E) 07:41:43 2200.000
CUTE-I 30 Sep 07:42:27 07:47:50 76° 103° (ESE) 07:53:12 437.470
Cubesat XI-IV 30 Sep 07:43:08 07:48:32 76° 104° (ESE) 07:53:54 437.490
BEESAT 3 30 Sep 07:50:02 07:53:07 21° 34° (NE) 07:56:10 437.485
HORYU 2 30 Sep 07:56:04 07:59:17 20° 299° (WNW) 08:02:31 437.375
CINEMA 3 30 Sep 08:03:53 08:07:03 21° 92° (E) 08:10:16 145.822/145.860
PRISM 30 Sep 08:22:04 08:25:43 30° 66° (ENE) 08:29:24 437.425
COMPASS 1 30 Sep 08:35:45 08:38:28 16° 90° (E) 08:41:11 437.405
STRAND 1 30 Sep 08:35:51 08:40:12 28° 266° (W) 08:44:34 437.568
AO-7 30 Sep 08:36:12 08:39:48 14° 328° (NNW) 08:43:26 29.400- 29.500
GOMX 1 30 Sep 08:40:18 08:43:52 24° 297° (WNW) 08:47:18 467.674
O/OREOS (USA 219) 30 Sep 08:40:31 08:44:41 33° 306° (NW) 08:48:53 437.305
NOAA 18 30 Sep 08:45:39 08:50:53 46° 294° (WNW) 08:56:04 137.9125
CUSAT 1 30 Sep 08:46:29 08:47:34 10° 291° (WNW) 08:48:39 437.405
DOVE 4 30 Sep 08:47:57 08:51:55 40° 290° (WNW) 08:55:47 437.250
BEESAT 2 30 Sep 08:50:44 08:54:25 33° 41° (NE) 08:58:05 435.950
HO-68 30 Sep 08:50:57 08:57:52 49° 100° (E) 09:04:45 435.675
CUBEBUG 2 30 Sep 08:53:48 08:57:01 20° 92° (E) 09:00:19 437.445
DANDE 30 Sep 08:55:37 09:01:42 23° 281° (W) 09:07:31 436.750
TIGRISAT 30 Sep 08:57:45 08:58:57 11° 56° (NE) 09:00:09 435.000
NOAA 15 30 Sep 08:58:14 09:02:31 25° 300° (WNW) 09:06:45 137.62
Cosmos 2499 30 Sep 08:58:21 09:05:16 58° 93° (E) 09:12:12 435.465 / 435.565
LilacSat-2 30 Sep 09:00:27 09:02:32 14° 299° (WNW) 09:04:36 437.200
PCSat 30 Sep 09:01:10 09:02:21 11° 356° (N) 09:03:34 145.827
GONETS M04 30 Sep 09:02:14 09:11:02 73° 94° (E) 09:19:52
UWE-3 30 Sep 09:06:27 09:09:32 19° 91° (E) 09:12:40 435.000/436.395/437.385
SEEDS 30 Sep 09:08:18 09:12:27 48° 99° (E) 09:16:34 437.485
CUTE 1.7 + AOD 2 30 Sep 09:11:41 09:16:00 74° 102° (ESE) 09:20:18 437.475
CANX-2 30 Sep 09:13:29 09:17:49 88° 99° (E) 09:22:08 2200.000
Oscar 11 30 Sep 09:22:58 09:25:54 17° 90° (E) 09:28:48 145.826/435.025
AAUSAT CUBESAT 2 30 Sep 09:23:16 09:27:14 38° 97° (E) 09:31:09 437.432
CUTE-I 30 Sep 09:23:33 09:27:19 20° 303° (WNW) 09:31:06 437.470
Cubesat XI-IV 30 Sep 09:24:16 09:28:02 20° 303° (WNW) 09:31:49 437.490
BEESAT 3 30 Sep 09:27:12 09:31:11 71° 235° (SW) 09:35:08 437.485
ZACube-1 30 Sep 09:29:38 09:32:58 21° 92° (E) 09:36:20 437.345
UNISAT 6 30 Sep 09:36:30 09:40:02 26° 65° (ENE) 09:43:36 437.425
CINEMA 3 30 Sep 09:40:28 09:44:25 42° 290° (WNW) 09:48:26 145.822/145.860
PRISM 30 Sep 09:57:19 10:00:59 30° 264° (W) 10:04:42 437.425
AIST 2 30 Sep 09:58:41 10:01:05 15° 26° (NNE) 10:03:29 435.215
JAS-2 30 Sep 10:00:51 10:05:08 17° 46° (NE) 10:09:38 435.910
COMPASS 1 30 Sep 10:10:14 10:14:23 55° 288° (WNW) 10:18:29 437.405
ANTELSAT 30 Sep 10:11:01 10:15:11 54° 71° (ENE) 10:19:22 437.575/2403.000
QB50P1 30 Sep 10:19:26 10:21:00 12° 57° (ENE) 10:22:35 145.935-145.965
DELFI C3 30 Sep 10:20:39 10:24:05 26° 94° (E) 10:27:28 145.870
FUNcube-1 30 Sep 10:21:31 10:25:50 63° 102° (ESE) 10:30:13 145.935
BEESAT 2 30 Sep 10:28:34 10:32:15 35° 241° (WSW) 10:35:55 435.950
CUBEBUG 2 30 Sep 10:29:46 10:33:53 46° 289° (WNW) 10:38:05 437.445
TIGRISAT 30 Sep 10:30:41 10:34:56 82° 75° (ENE) 10:39:13 435.000
POPSAT HIP 1 30 Sep 10:32:12 10:34:40 15° 60° (ENE) 10:37:07 437.405
HO-68 30 Sep 10:38:55 10:45:30 41° 300° (WNW) 10:52:03 435.675
UWE-3 30 Sep 10:42:05 10:46:16 51° 289° (WNW) 10:50:33 435.000/436.395/437.385
SEEDS 30 Sep 10:44:41 10:47:50 20° 297° (WNW) 10:50:59 437.485
PCSat 30 Sep 10:45:03 10:48:14 15° 23° (NNE) 10:51:24 145.827
NANOSAT C BR1 30 Sep 10:45:54 10:48:55 20° 62° (ENE) 10:51:57 145.865
CUTE 1.7 + AOD 2 30 Sep 10:48:54 10:51:18 15° 301° (WNW) 10:53:41 437.475
CANX-2 30 Sep 10:51:08 10:53:02 13° 302° (WNW) 10:54:56 2200.000
Cosmos 2499 30 Sep 10:52:45 10:58:51 30° 295° (WNW) 11:05:00 435.465 / 435.565
Oscar 11 30 Sep 10:58:05 11:02:23 56° 288° (WNW) 11:06:38 145.826/435.025
AAUSAT CUBESAT 2 30 Sep 10:59:09 11:02:32 24° 295° (WNW) 11:05:54 437.432
GONETS M04 30 Sep 11:01:08 11:08:44 31° 298° (WNW) 11:16:23
HUMSAT D 30 Sep 11:01:41 11:05:41 37° 97° (E) 11:09:40 437.325/437.525
ZACube-1 30 Sep 11:05:19 11:09:28 46° 289° (WNW) 11:13:41 437.345
QB50P2 30 Sep 11:10:58 11:14:50 36° 68° (ENE) 11:18:43 145.880/145.840
UNISAT 6 30 Sep 11:12:43 11:16:39 35° 263° (W) 11:20:36 437.425
POLYITAN 1 30 Sep 11:13:10 11:17:01 36° 68° (ENE) 11:20:53 437.675
PHONESAT 2.4 30 Sep 11:33:05 11:34:56 15° 171° (S) 11:36:47 2401.200-2431.200
AIST 2 30 Sep 11:36:19 11:40:27 55° 47° (NE) 11:44:35 435.215
BUGSAT 1 30 Sep 11:38:28 11:41:51 26° 65° (ENE) 11:45:13 437.445
JAS-2 30 Sep 11:41:57 11:48:38 62° 68° (ENE) 11:56:06 435.910
DUCHIFAT 1 30 Sep 11:46:42 11:50:51 70° 74° (ENE) 11:55:01 145.980
ANTELSAT 30 Sep 11:49:30 11:52:15 17° 270° (W) 11:55:03 437.575/2403.000
QB50P1 30 Sep 11:51:55 11:56:07 89° 73° (ENE) 12:00:21 145.935-145.965
DELFI C3 30 Sep 11:55:22 11:58:57 31° 292° (WNW) 12:02:30 145.870
FUNcube-1 30 Sep 11:58:50 12:01:39 17° 299° (WNW) 12:04:31 145.935
POPSAT HIP 1 30 Sep 12:05:47 12:09:58 67° 258° (WSW) 12:14:10 437.405
TIGRISAT 30 Sep 12:10:56 12:12:14 11° 273° (W) 12:13:32 435.000
CUBEBUG 1 30 Sep 12:11:08 12:14:32 22° 93° (E) 12:17:54 437.445
Gurwin Techsat 1B 30 Sep 12:14:25 12:15:45 11° 49° (NE) 12:17:04 435.225
VELOX 1 30 Sep 12:14:29 12:17:36 19° 91° (E) 12:20:41 145.980
AO-7 30 Sep 12:16:44 12:17:37 10° 24° (NNE) 12:18:31 29.400- 29.500
NANOSAT C BR1 30 Sep 12:20:16 12:24:20 49° 260° (W) 12:28:26 145.865
ESTCUBE 1 30 Sep 12:26:21 12:30:46 47° 99° (E) 12:35:08 437.505/2401.250
PCSat 30 Sep 12:27:49 12:33:03 45° 47° (NE) 12:38:15 145.827
HO-68 30 Sep 12:29:29 12:31:22 11° 322° (NW) 12:33:16 435.675
Oscar 19 30 Sep 12:29:59 12:34:10 25° 61° (ENE) 12:38:22 437.125/150
50 SAT 30 Sep 12:34:26 12:37:33 25° 95° (E) 12:40:37 437.505
HUMSAT D 30 Sep 12:37:38 12:41:09 25° 295° (WNW) 12:44:40 437.325/437.525
SPROUT 30 Sep 12:38:50 12:41:54 19° 92° (E) 12:44:57 437.525
QB50P2 30 Sep 12:47:17 12:50:44 24° 266° (W) 12:54:13 145.880/145.840
YUBILEINY 30 Sep 12:48:58 12:56:13 28° 60° (ENE) 13:03:25 435.215
POLYITAN 1 30 Sep 12:49:29 12:52:55 24° 266° (W) 12:56:22 437.675
AUBIESAT-1 30 Sep 12:51:34 12:52:41 11° 97° (E) 12:53:47 437.475
Cosmos 2491 30 Sep 12:58:12 13:00:02 11° 66° (ENE) 13:01:53 435.465 / 435.565
UKube-1 30 Sep 12:58:24 13:01:59 25° 94° (E) 13:05:32 .
AISAT 30 Sep 13:06:37 13:11:00 62° 102° (ESE) 13:15:20 437.250
PHONESAT 2.4 30 Sep 13:08:28 13:10:24 16° 187° (S) 13:12:20 2401.200-2431.200
BUGSAT 1 30 Sep 13:13:25 13:17:07 33° 263° (W) 13:20:50 437.445
AIST 2 30 Sep 13:15:27 13:18:37 21° 246° (WSW) 13:21:46 435.215
DUCHIFAT 1 30 Sep 13:25:05 13:27:01 13° 271° (W) 13:28:59 145.980
JAS-2 30 Sep 13:28:16 13:34:10 31° 270° (W) 13:40:40 435.910
M-CUBED/EXP-1 PRIME 30 Sep 13:29:53 13:32:59 39° 105° (ESE) 13:36:05 437.505
ITAMSAT 1 30 Sep 13:31:07 13:33:53 15° 53° (NE) 13:36:40 435.822/435.867
DX 1 30 Sep 13:32:07 13:36:28 68° 103° (ESE) 13:40:46 434.975-435.025
QB50P1 30 Sep 13:32:16 13:32:32 10° 273° (W) 13:32:48 145.935-145.965
CUBEBUG 1 30 Sep 13:46:54 13:51:01 43° 291° (WNW) 13:55:06 437.445
TISAT 1 30 Sep 13:48:43 13:51:54 21° 93° (E) 13:55:04 437.305
Gurwin Techsat 1B 30 Sep 13:49:25 13:54:36 56° 69° (ENE) 13:59:49 435.225
Cosmos 2504 30 Sep 13:49:44 13:55:33 24° 62° (ENE) 14:01:36 435.465 / 435.565
VELOX 1 30 Sep 13:50:05 13:54:23 52° 289° (WNW) 13:58:39 145.980
SO-50 30 Sep 14:00:32 14:02:20 12° 108° (ESE) 14:04:08 436.795
AO-7 30 Sep 14:00:52 14:07:43 30° 49° (NE) 14:14:35 29.400- 29.500
ESTCUBE 1 30 Sep 14:03:43 14:07:18 23° 298° (WNW) 14:10:51 437.505/2401.250
50 SAT 30 Sep 14:07:51 14:11:00 27° 293° (WNW) 14:14:08 437.505
Oscar 19 30 Sep 14:08:05 14:13:11 54° 260° (W) 14:18:18 437.125/150
PCSat 30 Sep 14:11:27 14:16:22 36° 247° (WSW) 14:21:16 145.827
SPROUT 30 Sep 14:14:00 14:18:06 48° 290° (WNW) 14:22:12 437.525
BEESAT 30 Sep 14:20:47 14:21:23 10° 85° (E) 14:21:59 436.000
AUBIESAT-1 30 Sep 14:24:16 14:27:30 51° 294° (WNW) 14:30:44 437.475
UKube-1 30 Sep 14:34:08 14:38:08 38° 292° (WNW) 14:42:07 .
AISAT 30 Sep 14:44:07 14:47:02 18° 300° (WNW) 14:49:57 437.250
YUBILEINY 30 Sep 14:45:20 14:54:03 79° 264° (W) 15:02:44 435.215
Cosmos 2491 30 Sep 14:46:13 14:54:38 53° 89° (E) 15:03:07 435.465 / 435.565
AIST 1 30 Sep 14:54:39 14:54:51 10° 60° (ENE) 14:55:03
M-CUBED/EXP-1 PRIME 30 Sep 15:05:14 15:07:18 16° 303° (WNW) 15:09:21 437.505
ITAMSAT 1 30 Sep 15:07:23 15:12:33 80° 73° (ENE) 15:17:47 435.822/435.867
DX 1 30 Sep 15:09:29 15:12:09 16° 301° (WNW) 15:14:49 434.975-435.025
TISAT 1 30 Sep 15:23:47 15:27:45 42° 290° (WNW) 15:31:40 437.305
O/OREOS (USA 219) 30 Sep 15:28:14 15:31:43 21° 47° (NE) 15:35:10 437.305
Gurwin Techsat 1B 30 Sep 15:30:43 15:34:55 23° 268° (W) 15:39:08 435.225
ITUPSAT 1 30 Sep 15:31:09 15:35:48 46° 99° (E) 15:40:25 437.325
SO-50 30 Sep 15:37:13 15:42:02 76° 126° (SE) 15:46:49 436.795
Cosmos 2504 30 Sep 15:42:22 15:49:48 82° 263° (W) 15:57:45 435.465 / 435.565
SWISSCUBE 30 Sep 15:42:31 15:47:19 66° 102° (ESE) 15:52:05 437.505
HORYU 2 30 Sep 15:47:00 15:48:41 12° 55° (NE) 15:50:22 437.375
AO-7 30 Sep 15:51:23 15:59:44 82° 251° (WSW) 16:08:06 29.400- 29.500
BEESAT 30 Sep 15:55:09 15:59:59 77° 104° (ESE) 16:04:47 436.000
AIST 1 30 Sep 16:28:55 16:33:15 82° 82° (E) 16:37:30
GOMX 1 30 Sep 16:38:24 16:40:23 12° 55° (NE) 16:42:19 467.674
Cosmos 2491 30 Sep 16:43:30 16:51:43 42° 292° (WNW) 17:00:03 435.465 / 435.565
YUBILEINY 30 Sep 16:43:58 16:49:23 19° 286° (WNW) 16:54:49 435.215
ITAMSAT 1 30 Sep 16:49:35 16:52:40 16° 272° (W) 16:55:46 435.822/435.867
MOZHAYETS 4 30 Sep 16:54:57 16:59:35 62° 101° (E) 17:04:12
NOAA 18 30 Sep 16:57:41 17:00:49 16° 53° (NE) 17:03:58 137.9125
KKS-1 30 Sep 16:58:38 17:02:51 41° 99° (E) 17:07:02 437.445
BRITE-PL 30 Sep 17:00:43 17:05:52 38° 67° (ENE) 17:10:51 437.365/2234.400
NOAA 15 30 Sep 17:03:39 17:07:42 23° 58° (ENE) 17:11:46 137.62
O/OREOS (USA 219) 30 Sep 17:07:00 17:11:35 65° 248° (WSW) 17:16:07 437.305
ITUPSAT 1 30 Sep 17:09:26 17:13:25 26° 298° (WNW) 17:17:23 437.325
GONETS M04 30 Sep 17:13:41 17:16:33 12° 42° (NE) 17:19:24
SO-50 30 Sep 17:19:01 17:23:00 25° 327° (NNW) 17:26:57 436.795
HORYU 2 30 Sep 17:20:06 17:24:31 82° 74° (ENE) 17:28:57 437.375
SWISSCUBE 30 Sep 17:21:16 17:24:39 20° 301° (WNW) 17:28:03 437.505
STARS 30 Sep 17:23:58 17:28:03 37° 98° (E) 17:32:06 437.465
CUTE-I 30 Sep 17:29:19 17:33:49 29° 62° (ENE) 17:38:22 437.470
Cubesat XI-IV 30 Sep 17:30:09 17:34:40 29° 62° (ENE) 17:39:13 437.490
BEESAT 30 Sep 17:34:10 17:37:11 17° 303° (WNW) 17:40:14 436.000
Cosmos 2504 30 Sep 17:37:35 17:42:04 17° 283° (WNW) 17:46:42 435.465 / 435.565
HO-68 30 Sep 17:40:20 17:43:55 15° 42° (NE) 17:47:30 435.675
AO-7 30 Sep 17:48:05 17:53:46 20° 272° (W) 17:59:28 29.400- 29.500
AIST 1 30 Sep 18:09:04 18:10:08 11° 279° (W) 18:11:12
LilacSat-2 30 Sep 18:10:14 18:13:52 50° 72° (ENE) 18:17:34 437.200
GOMX 1 30 Sep 18:12:24 18:17:40 69° 73° (ENE) 18:22:39 467.674
DOVE 4 30 Sep 18:19:05 18:23:32 37° 68° (ENE) 18:27:45 437.250
CUSAT 1 30 Sep 18:22:56 18:28:48 31° 84° (E) 18:35:24 437.405
CUBESAT XI-V 30 Sep 18:22:57 18:27:40 68° 102° (ESE) 18:32:18 437.345
MOZHAYETS 4 30 Sep 18:33:03 18:36:20 19° 300° (WNW) 18:39:36
NOAA 18 30 Sep 18:35:13 18:40:40 80° 74° (ENE) 18:46:09 137.9125
CUTE 1.7 + AOD 2 30 Sep 18:35:22 18:36:43 11° 57° (ENE) 18:38:05 437.475
KKS-1 30 Sep 18:35:37 18:39:13 25° 297° (WNW) 18:42:50 437.445
CANX-2 30 Sep 18:36:30 18:38:31 13° 58° (ENE) 18:40:33 2200.000
BRITE-PL 30 Sep 18:39:00 18:44:17 39° 264° (W) 18:49:26 437.365/2234.400
NOAA 15 30 Sep 18:41:45 18:47:02 65° 258° (WSW) 18:52:21 137.62
DANDE 30 Sep 18:43:27 18:47:12 17° 75° (ENE) 18:51:25 436.750
Cosmos 2499 30 Sep 18:43:41 18:49:59 28° 64° (ENE) 18:56:38 435.465 / 435.565
Cosmos 2491 30 Sep 18:49:37 18:51:43 11° 320° (NW) 18:53:49 435.465 / 435.565
HORYU 2 30 Sep 18:59:56 19:01:40 12° 272° (W) 19:03:25 437.375
STARS 30 Sep 19:00:36 19:04:16 27° 296° (WNW) 19:07:56 437.465
SO-50 30 Sep 19:03:18 19:05:07 12° 351° (N) 19:06:55 436.795
STRAND 1 30 Sep 19:05:01 19:06:25 11° 85° (E) 19:07:48 437.568
GONETS M04 30 Sep 19:07:57 19:16:22 45° 69° (ENE) 19:24:39
CUTE-I 30 Sep 19:08:34 19:13:40 47° 261° (W) 19:18:50 437.470
CINEMA 3 30 Sep 19:09:01 19:12:49 30° 67° (ENE) 19:16:31 145.822/145.860
Cubesat XI-IV 30 Sep 19:09:26 19:14:32 47° 261° (W) 19:19:42 437.490
HO-68 30 Sep 19:23:13 19:30:08 54° 64° (ENE) 19:37:04 435.675
COMPASS 1 30 Sep 19:30:07 19:33:05 19° 62° (ENE) 19:36:05 437.405
ISS 30 Sep 19:33:47 19:35:59 17° 138° (SE) 19:38:11 145.825
RS-15 30 Sep 19:34:52 19:45:40 47° 111° (ESE) 19:56:58 29.354- 29.394
AO-85 30 Sep 19:41:23 19:43:18 12° 109° (ESE) 19:45:11 145.980
LilacSat-2 30 Sep 19:46:21 19:48:30 15° 270° (W) 19:50:39 437.200
GOMX 1 30 Sep 19:52:30 19:56:09 19° 270° (W) 19:59:41 467.674
CUBEBUG 2 30 Sep 19:55:41 19:59:07 26° 65° (ENE) 20:02:34 437.445
DOVE 4 30 Sep 19:56:59 20:01:16 30° 265° (W) 20:05:22 437.250
CUBESAT XI-V 30 Sep 20:01:23 20:04:33 18° 301° (WNW) 20:07:40 437.345
SEEDS 30 Sep 20:03:16 20:07:23 54° 71° (ENE) 20:11:32 437.485
CUSAT 1 30 Sep 20:03:24 20:10:12 66° 287° (WNW) 20:18:08 437.405
UWE-3 30 Sep 20:07:14 20:10:32 23° 64° (ENE) 20:13:49 435.000/436.395/437.385
CUTE 1.7 + AOD 2 30 Sep 20:07:36 20:11:50 83° 74° (ENE) 20:16:08 437.475
CANX-2 30 Sep 20:09:30 20:13:46 83° 257° (WSW) 20:18:05 2200.000
AAUSAT CUBESAT 2 30 Sep 20:16:48 20:20:44 41° 69° (ENE) 20:24:42 437.432
NOAA 18 30 Sep 20:18:32 20:21:59 17° 271° (W) 20:25:28 137.9125
Oscar 11 30 Sep 20:21:15 20:24:35 22° 63° (ENE) 20:27:55 145.826/435.025
DANDE 30 Sep 20:22:42 20:28:29 84° 99° (E) 20:36:00 436.750
ZACube-1 30 Sep 20:29:14 20:32:37 25° 65° (ENE) 20:36:02 437.345
Cosmos 2499 30 Sep 20:36:16 20:43:47 73° 265° (W) 20:51:54 435.465 / 435.565
STRAND 1 30 Sep 20:41:17 20:46:28 76° 104° (ESE) 20:51:38 437.568
SO-50 30 Sep 20:45:17 20:47:37 13° 16° (NNE) 20:49:56 436.795
CINEMA 3 30 Sep 20:46:04 20:49:57 30° 264° (W) 20:53:44 145.822/145.860
COMPASS 1 30 Sep 21:04:13 21:08:18 51° 260° (W) 21:12:26 437.405
GONETS M04 30 Sep 21:04:57 21:13:18 49° 272° (W) 21:21:34
ISS 30 Sep 21:08:48 21:12:04 81° 154° (SSE) 21:15:20 145.825
DELFI C3 30 Sep 21:09:59 21:13:20 26° 66° (ENE) 21:16:44 145.870
HO-68 30 Sep 21:11:38 21:18:07 36° 264° (W) 21:24:39 435.675
AO-85 30 Sep 21:17:57 21:23:04 72° 125° (SE) 21:27:51 145.980
FUNcube-1 30 Sep 21:20:34 21:24:41 76° 75° (ENE) 21:28:51 145.935
CUBEBUG 2 30 Sep 21:31:51 21:35:39 34° 263° (W) 21:39:28 437.445
PRISM 30 Sep 21:34:44 21:38:18 27° 95° (E) 21:41:50 437.425
SEEDS 30 Sep 21:40:37 21:43:25 17° 270° (W) 21:46:13 437.485
UWE-3 30 Sep 21:42:57 21:46:49 38° 263° (W) 21:50:43 435.000/436.395/437.385
RS-15 30 Sep 21:45:57 21:57:44 69° 317° (NW) 22:10:05 29.354- 29.394
CUTE 1.7 + AOD 2 30 Sep 21:46:58 21:48:18 11° 274° (W) 21:49:37 437.475
CUSAT 1 30 Sep 21:49:08 21:53:58 18° 310° (NW) 21:59:08 437.405
AAUSAT CUBESAT 2 30 Sep 21:53:11 21:56:23 21° 268° (W) 21:59:38 437.432
Oscar 11 30 Sep 21:56:18 22:00:27 45° 262° (W) 22:04:38 145.826/435.025
HUMSAT D 30 Sep 21:56:24 22:00:15 41° 69° (ENE) 22:04:10 437.325/437.525
ESTCUBE 1 30 Sep 21:56:50 21:57:43 10° 54° (NE) 21:58:37 437.505/2401.250
ZACube-1 30 Sep 22:05:00 22:08:47 35° 263° (W) 22:12:38 437.345
DANDE 30 Sep 22:07:34 22:12:30 23° 306° (NW) 22:18:17 436.750
TIGRISAT 30 Sep 22:19:38 22:21:45 13° 88° (E) 22:23:54 435.000
STRAND 1 30 Sep 22:21:32 22:25:06 19° 303° (WNW) 22:28:38 437.568
SO-50 30 Sep 22:25:10 22:29:27 35° 39° (NE) 22:33:37 436.795
Cosmos 2499 30 Sep 22:31:37 22:35:39 15° 285° (WNW) 22:39:49 435.465 / 435.565
AISAT 30 Sep 22:33:55 22:35:54 13° 56° (ENE) 22:37:52 437.250
DELFI C3 30 Sep 22:44:28 22:48:05 32° 264° (W) 22:51:44 145.870
ISS 30 Sep 22:45:33 22:48:43 47° 356° (N) 22:51:54 145.825
M-CUBED/EXP-1 PRIME 30 Sep 22:47:09 22:49:03 13° 55° (NE) 22:50:54 437.505
DX 1 30 Sep 22:57:35 22:59:44 13° 57° (ENE) 23:01:52 434.975-435.025
AO-85 30 Sep 22:59:44 23:03:57 26° 324° (NW) 23:07:54 145.980
UNISAT 6 30 Sep 22:59:54 23:03:57 34° 96° (E) 23:08:03 437.425
FUNcube-1 30 Sep 23:00:02 23:01:30 12° 273° (W) 23:02:58 145.935
PRISM 30 Sep 23:09:56 23:13:37 32° 294° (WNW) 23:17:16 437.425
CUBEBUG 1 30 Sep 23:10:24 23:14:15 30° 66° (ENE) 23:18:06 437.445
50 SAT 30 Sep 23:14:49 23:17:37 21° 65° (ENE) 23:20:25 437.505
VELOX 1 30 Sep 23:15:03 23:18:48 27° 64° (ENE) 23:22:34 145.980
ESTCUBE 1 30 Sep 23:29:10 23:33:40 68° 73° (ENE) 23:38:13 437.505/2401.250
HUMSAT D 30 Sep 23:32:57 23:36:04 21° 268° (W) 23:39:14 437.325/437.525
ANTELSAT 30 Sep 23:34:56 23:39:23 74° 104° (ESE) 23:43:53 437.575/2403.000
QB50P1 30 Sep 23:35:03 23:36:18 11° 87° (E) 23:37:33 145.935-145.965
SPROUT 30 Sep 23:35:50 23:39:16 24° 64° (ENE) 23:42:42 437.525
AUBIESAT-1 30 Sep 23:39:20 23:42:49 34° 64° (ENE) 23:46:08 437.475
POPSAT HIP 1 30 Sep 23:47:52 23:50:20 15° 90° (E) 23:52:49 437.405
TIGRISAT 30 Sep 23:54:33 23:58:58 76° 286° (WNW) 00:03:27 435.000
UKube-1 30 Sep 23:56:13 00:00:08 34° 67° (ENE) 00:04:05 .
NANOSAT C BR1 01 Oct 00:01:19 00:04:25 20° 92° (E) 00:07:30 145.865
RS-15 01 Oct 00:01:49 00:12:54 39° 348° (NNW) 00:24:16 29.354- 29.394
SO-50 01 Oct 00:05:41 00:10:01 42° 240° (WSW) 00:14:13 436.795
AISAT 01 Oct 00:07:14 00:11:42 87° 70° (ENE) 00:16:09 437.250
M-CUBED/EXP-1 PRIME 01 Oct 00:19:14 00:23:13 71° 251° (WSW) 00:26:54 437.505
ISS 01 Oct 00:22:13 00:25:29 66° 16° (NNE) 00:28:46 145.825
BEESAT 2 01 Oct 00:24:55 00:27:10 15° 112° (ESE) 00:29:26 435.950
QB50P2 01 Oct 00:27:25 00:31:25 40° 98° (E) 00:35:23 145.880/145.840
POLYITAN 1 01 Oct 00:29:35 00:33:34 40° 98° (E) 00:37:34 437.675
DX 1 01 Oct 00:30:54 00:35:18 86° 256° (WSW) 00:39:42 434.975-435.025
JAS-2 01 Oct 00:32:12 00:39:42 45° 95° (E) 00:46:48 435.910
UNISAT 6 01 Oct 00:36:46 00:40:36 30° 294° (WNW) 00:44:30 437.425
TISAT 1 01 Oct 00:43:48 00:47:16 26° 65° (ENE) 00:50:46 437.305
AO-85 01 Oct 00:44:26 00:45:55 11° 348° (NNW) 00:47:23 145.980
CUBEBUG 1 01 Oct 00:46:29 00:50:29 33° 264° (W) 00:54:29 437.445
50 SAT 01 Oct 00:47:35 00:50:55 33° 263° (W) 00:54:18 437.505
VELOX 1 01 Oct 00:51:00 00:55:08 37° 262° (W) 00:59:18 145.980
BUGSAT 1 01 Oct 00:51:14 00:54:34 24° 94° (E) 00:57:54 437.445
Cosmos 2491 01 Oct 00:51:39 00:59:29 33° 63° (ENE) 01:07:13 435.465 / 435.565
BEESAT 3 01 Oct 00:57:56 01:01:47 57° 123° (ESE) 01:05:40 437.485
